FW7294 Moinesti RO current weather conditions

sailwx.info

Wind from 269

Air temperature 12.8° C
Dewpoint 11.5° C

Last reported at 2020-Aug-04 01:05 UTC.
Time now 2020-Aug-04 02:11 UTC

Location: N 46°28' E 026°29'.
View on Google Maps.

See reports from other nearby stations

  
Tides and Currents Weather Stations Pressure Air Temp Water Temp Dewpoint Dewpoint Depression Visibility Wind Speed Wind Dir Waves Ship Positions
date/time (UTC)wind fromknots sea level pressurealtimeterstation pressurevisibilityair tempwater tempwave heightnotes
2020-Aug-04 01:05 269 12.8
2020-Aug-04 00:59 276 12.8
2020-Aug-04 00:52 264 12.8
2020-Aug-04 00:46 269 12.8
2020-Aug-04 00:40 261 12.8
2020-Aug-04 00:34 274 12.8
2020-Aug-04 00:27 272 12.8
2020-Aug-04 00:21 234 12.8
2020-Aug-04 00:15 261 13.3
2020-Aug-04 00:09 253 13.3
2020-Aug-04 00:02 253 13.3
2020-Aug-03 23:56 269 13.3
2020-Aug-03 23:50 270 13.3
2020-Aug-03 23:44 247 13.3
2020-Aug-03 23:37 269 13.3
2020-Aug-03 23:31 256 13.3
2020-Aug-03 23:25 256 13.3
2020-Aug-03 23:18 247 13.3
2020-Aug-03 23:12 264 13.3
2020-Aug-03 23:06 247 13.3
2020-Aug-03 23:00 246 12.8
2020-Aug-03 22:53 244 12.8
2020-Aug-03 22:47 251 13.9
2020-Aug-03 22:41 255 13.9
2020-Aug-03 22:35 263 13.9
2020-Aug-03 22:28 249 13.9
2020-Aug-03 22:22 248 13.9
2020-Aug-03 22:16 247 13.9
2020-Aug-03 22:10 247 13.3
2020-Aug-03 22:03 249 13.3
2020-Aug-03 21:57 249 13.3
2020-Aug-03 21:51 248 13.9
2020-Aug-03 21:45 249 13.3
2020-Aug-03 21:38 247 13.3
2020-Aug-03 21:32 247 13.3
2020-Aug-03 21:26 246 13.9
2020-Aug-03 21:19 251 13.3
2020-Aug-03 21:13 251 13.9
2020-Aug-03 21:07 251 13.9
2020-Aug-03 21:01 251 14.4
2020-Aug-03 20:54 251 14.4
2020-Aug-03 20:48 260 14.4
2020-Aug-03 20:42 260 14.4
2020-Aug-03 20:36 254 14.4
2020-Aug-03 20:29 245 13.9
2020-Aug-03 20:23 244 13.9
2020-Aug-03 20:17 244 14.4
2020-Aug-03 20:11 243 14.4
2020-Aug-03 20:04 243 14.4
2020-Aug-03 19:58 243 15.0
2020-Aug-03 19:52 243 15.6
2020-Aug-03 19:46 252 15.6
2020-Aug-03 19:39 248 15.0
2020-Aug-03 19:33 248 15.0
2020-Aug-03 19:27 247 15.6
2020-Aug-03 19:20 248 15.6
2020-Aug-03 19:14 248 15.6
2020-Aug-03 19:08 248 15.6
2020-Aug-03 19:02 250 16.1
2020-Aug-03 18:55 249 16.1
2020-Aug-03 18:49 249 16.1
2020-Aug-03 18:43 250 16.7
2020-Aug-03 18:37 250 17.2
2020-Aug-03 18:30 247 17.2
2020-Aug-03 18:24 258 17.2
2020-Aug-03 18:18 248 17.8
2020-Aug-03 18:11 256 18.3
2020-Aug-03 18:05 257 18.3
2020-Aug-03 17:59 257 18.9
2020-Aug-03 17:53 260 18.9
2020-Aug-03 17:46 252 19.4
2020-Aug-03 17:40 242 20.0
2020-Aug-03 17:34 254 21.1
2020-Aug-03 17:21 215 21.1
2020-Aug-03 17:15 210 21.1
2020-Aug-03 17:09 215 21.7
2020-Aug-03 17:03 212 22.2
2020-Aug-03 16:56 213 22.2
2020-Aug-03 16:50 215 22.8
2020-Aug-03 16:44 215 23.3
2020-Aug-03 16:38 211 23.3
2020-Aug-03 16:31 212 23.9
2020-Aug-03 16:25 212 23.9
2020-Aug-03 16:19 216 24.4
2020-Aug-03 16:13 215 26.1
2020-Aug-03 16:06 209 25.0
2020-Aug-03 16:00 216 25.0
2020-Aug-03 15:54 216 23.9
2020-Aug-03 15:47 205 25.6
2020-Aug-03 15:41 270 25.0
2020-Aug-03 15:35 270 25.0
2020-Aug-03 15:29 270 25.6
2020-Aug-03 15:22 268 25.0
2020-Aug-03 15:16 190 26.7
2020-Aug-03 15:10 126 26.7
2020-Aug-03 15:04 170 27.2
2020-Aug-03 14:57 086 27.2
2020-Aug-03 14:51 011 27.8
2020-Aug-03 14:45 323 28.9
2020-Aug-03 14:39 308 28.9
2020-Aug-03 14:32 009 27.8
2020-Aug-03 14:26 136 28.9
2020-Aug-03 14:20 114 28.9
2020-Aug-03 14:14 209 27.8
2020-Aug-03 14:07 227 27.2
2020-Aug-03 14:01 217 29.4
2020-Aug-03 13:16 060 28.3
2020-Aug-03 13:10 230 27.8
2020-Aug-03 13:04 174 28.3
2020-Aug-03 12:57 034 27.2
2020-Aug-03 12:51 070 28.3
2020-Aug-03 12:45 001 27.8
2020-Aug-03 12:39 295 27.8
2020-Aug-03 12:32 314 27.8
2020-Aug-03 12:26 062 27.8
2020-Aug-03 12:20 328 28.9
2020-Aug-03 12:14 209 28.9
2020-Aug-03 12:07 214 28.3
2020-Aug-03 12:01 233 28.3
2020-Aug-03 11:55 082 26.7
2020-Aug-03 11:49 237 28.3
2020-Aug-03 11:42 322 27.8
2020-Aug-03 11:36 091 27.2
2020-Aug-03 11:30 296 28.3
2020-Aug-03 11:23 105 27.2
2020-Aug-03 11:17 263 27.8
2020-Aug-03 11:11 154 27.8
2020-Aug-03 11:05 342 27.8
2020-Aug-03 10:58 254 27.2
2020-Aug-03 10:52 116 27.2
2020-Aug-03 10:46 245 27.8
2020-Aug-03 10:40 264 27.8
2020-Aug-03 10:33 056 26.7
2020-Aug-03 10:27 269 26.7
2020-Aug-03 10:21 198 27.2
2020-Aug-03 10:15 248 26.7
2020-Aug-03 10:08 187 27.2
2020-Aug-03 10:02 248 26.1
2020-Aug-03 09:56 288 26.7
2020-Aug-03 09:50 183 27.2
2020-Aug-03 09:43 180 26.1
2020-Aug-03 09:37 259 26.1
2020-Aug-03 09:31 109 25.0
2020-Aug-03 09:24 322 25.6
2020-Aug-03 09:18 208 25.6
2020-Aug-03 09:12 184 24.4
2020-Aug-03 09:06 254 25.0
2020-Aug-03 08:59 177 25.0
2020-Aug-03 08:53 196 25.0
2020-Aug-03 08:47 113 24.4
2020-Aug-03 08:41 066 24.4
2020-Aug-03 08:34 158 25.6
2020-Aug-03 08:28 122 24.4
2020-Aug-03 08:22 174 23.9
2020-Aug-03 08:16 223 23.3
2020-Aug-03 08:09 151 23.9
2020-Aug-03 08:03 194 24.4
2020-Aug-03 07:57 137 23.9
2020-Aug-03 07:51 200 23.9
2020-Aug-03 07:44 128 22.8
2020-Aug-03 07:38 233 22.2
2020-Aug-03 07:32 150 22.8
2020-Aug-03 07:25 285 22.2
2020-Aug-03 07:19 137 22.8
2020-Aug-03 07:13 141 22.2
2020-Aug-03 07:07 149 21.7
2020-Aug-03 07:00 099 20.6
2020-Aug-03 06:54 284 21.7
2020-Aug-03 06:48 245 21.1
2020-Aug-03 06:42 197 21.1
2020-Aug-03 06:35 096 20.6
2020-Aug-03 06:29 203 20.0
2020-Aug-03 06:23 186 19.4
2020-Aug-03 06:17 219 19.4
2020-Aug-03 06:10 274 19.4
2020-Aug-03 06:04 272 19.4
2020-Aug-03 05:58 302 19.4
2020-Aug-03 05:52 086 18.3
2020-Aug-03 05:45 181 18.3
2020-Aug-03 05:39 212 16.7
2020-Aug-03 05:33 299 17.2
2020-Aug-03 05:27 176 17.2
2020-Aug-03 05:20 270 17.2
2020-Aug-03 05:14 276 16.7
2020-Aug-03 05:08 304 16.1
2020-Aug-03 05:02 252 16.7
2020-Aug-03 04:55 241 15.6
2020-Aug-03 04:49 297 15.0
2020-Aug-03 04:43 314 14.4
2020-Aug-03 04:36 283 13.9
2020-Aug-03 04:30 287 13.9
2020-Aug-03 04:24 261 13.3
2020-Aug-03 04:18 252 13.3
2020-Aug-03 04:11 286 12.8
2020-Aug-03 04:05 289 12.8
2020-Aug-03 03:59 281 12.2
2020-Aug-03 03:53 278 12.8
2020-Aug-03 03:46 292 12.8
2020-Aug-03 03:40 279 12.2
2020-Aug-03 03:34 242 12.2
2020-Aug-03 03:28 278 11.7
2020-Aug-03 03:15 266 11.1
2020-Aug-03 03:09 274 11.1
2020-Aug-03 03:03 270 10.6
2020-Aug-03 02:56 283 10.6
2020-Aug-03 02:50 274 10.6
2020-Aug-03 02:44 263 10.6
2020-Aug-03 02:37 249 11.1
2020-Aug-03 02:31 283 11.1
2020-Aug-03 02:19 269 11.1
2020-Aug-03 02:12 271 11.1
2020-Aug-03 02:06 283 11.1
2020-Aug-03 02:00 278 11.1
2020-Aug-03 01:54 280 11.1
2020-Aug-03 01:47 280 11.1
2020-Aug-03 01:41 273 11.1
2020-Aug-03 01:35 259 11.1
2020-Aug-03 01:29 266 11.1
2020-Aug-03 01:22 248 10.6
2020-Aug-03 01:16 240 10.0
2020-Aug-03 01:10 281 10.0
2020-Aug-03 01:04 269 10.0
2020-Aug-03 00:57 272 10.0
2020-Aug-03 00:51 270 11.1
2020-Aug-03 00:45 268 11.1
2020-Aug-03 00:38 267 10.6
2020-Aug-03 00:32 304 10.0
2020-Aug-03 00:26 304 10.6
2020-Aug-03 00:20 254 11.1
2020-Aug-03 00:13 270 11.1
2020-Aug-03 00:05 274 10.6
2020-Aug-02 23:59 261 10.0
2020-Aug-02 23:52 262 10.0
2020-Aug-02 23:46 255 10.0
2020-Aug-02 23:40 269 10.0
2020-Aug-02 23:34 269 10.0
2020-Aug-02 23:27 274 10.0
2020-Aug-02 23:21 273 10.6
2020-Aug-02 23:15 272 10.6
2020-Aug-02 23:09 273 10.6
2020-Aug-02 23:02 274 11.1
2020-Aug-02 22:56 273 10.6
2020-Aug-02 22:50 274 10.6
2020-Aug-02 22:44 273 10.6
2020-Aug-02 22:37 267 11.1
2020-Aug-02 22:31 274 10.6
2020-Aug-02 22:25 274 11.1
2020-Aug-02 22:19 274 11.1
2020-Aug-02 22:12 275 11.1
2020-Aug-02 22:06 274 11.1
2020-Aug-02 22:00 274 11.7
2020-Aug-02 21:53 275 11.7
2020-Aug-02 21:47 276 11.7
2020-Aug-02 21:41 275 11.7
2020-Aug-02 21:35 274 11.7
2020-Aug-02 21:28 274 11.7
2020-Aug-02 21:22 274 11.7
2020-Aug-02 21:16 274 12.2
2020-Aug-02 21:10 272 12.2
2020-Aug-02 21:03 271 12.2
2020-Aug-02 20:57 273 12.2
2020-Aug-02 20:51 272 12.2
2020-Aug-02 20:45 273 12.8
2020-Aug-02 20:38 274 12.2
2020-Aug-02 20:32 269 12.8
2020-Aug-02 20:26 269 12.8
2020-Aug-02 20:20 270 12.8
2020-Aug-02 20:13 273 12.8
2020-Aug-02 20:07 271 12.8
2020-Aug-02 20:01 271 13.3
2020-Aug-02 19:54 271 13.3
2020-Aug-02 19:48 270 13.3
2020-Aug-02 19:42 270 13.3
2020-Aug-02 19:36 271 13.9
2020-Aug-02 19:29 270 13.9
2020-Aug-02 19:23 278 14.4
2020-Aug-02 19:17 269 14.4
2020-Aug-02 19:11 272 14.4
2020-Aug-02 19:04 275 14.4
2020-Aug-02 18:58 279 15.0
2020-Aug-02 18:52 269 15.0
2020-Aug-02 18:45 268 16.1
2020-Aug-02 18:39 280 16.1
2020-Aug-02 18:33 288 16.1
2020-Aug-02 18:27 295 16.1
2020-Aug-02 18:21 330 16.7
2020-Aug-02 18:14 297 16.1
2020-Aug-02 18:08 301 15.6
2020-Aug-02 18:02 293 16.1
2020-Aug-02 17:55 305 16.1
2020-Aug-02 17:49 301 16.1
2020-Aug-02 17:43 300 16.7
2020-Aug-02 17:37 298 16.7
2020-Aug-02 17:30 291 16.7
2020-Aug-02 17:24 291 17.8
2020-Aug-02 17:18 288 17.8
2020-Aug-02 17:12 299 18.3
2020-Aug-02 17:05 304 18.9
2020-Aug-02 16:59 286 19.4
2020-Aug-02 16:53 299 20.0
2020-Aug-02 16:46 327 20.0
2020-Aug-02 16:40 327 20.0
2020-Aug-02 16:34 359 20.0
2020-Aug-02 16:28 318 20.0
2020-Aug-02 16:21 318 20.6
2020-Aug-02 16:15 050 21.7
2020-Aug-02 16:09 050 23.3
2020-Aug-02 16:03 090 21.7
2020-Aug-02 15:56 104 22.2
2020-Aug-02 15:50 109 23.3
2020-Aug-02 15:44 307 23.9
2020-Aug-02 15:38 092 23.3
2020-Aug-02 15:31 244 23.9
2020-Aug-02 15:25 062 22.8
2020-Aug-02 15:19 107 22.2
2020-Aug-02 15:13 095 22.2
2020-Aug-02 15:06 094 22.2
2020-Aug-02 15:00 106 22.2
2020-Aug-02 14:54 097 23.3
2020-Aug-02 14:48 060 23.3
2020-Aug-02 14:41 091 22.8
2020-Aug-02 14:35 114 23.3
2020-Aug-02 14:29 120 22.8
2020-Aug-02 14:22 081 22.8
2020-Aug-02 14:16 096 22.8
2020-Aug-02 14:10 086 22.8
2020-Aug-02 14:04 076 22.8
2020-Aug-02 13:57 135 22.2
2020-Aug-02 13:51 093 22.8
2020-Aug-02 13:45 103 22.8
2020-Aug-02 13:39 120 22.8
2020-Aug-02 13:32 067 22.8
2020-Aug-02 13:26 115 22.8
2020-Aug-02 13:20 135 22.8
2020-Aug-02 13:14 092 22.8
2020-Aug-02 13:07 095 23.3
2020-Aug-02 13:01 078 23.3
2020-Aug-02 12:55 183 22.8
2020-Aug-02 12:49 103 22.2
2020-Aug-02 12:42 074 22.8
2020-Aug-02 12:36 074 22.8
2020-Aug-02 12:30 114 22.8
2020-Aug-02 12:23 086 22.8
2020-Aug-02 12:17 114 22.2
2020-Aug-02 12:11 113 22.2
2020-Aug-02 12:05 060 23.3
2020-Aug-02 11:58 089 22.8
2020-Aug-02 11:52 114 22.2
2020-Aug-02 11:46 103 22.8
2020-Aug-02 11:40 132 22.2
2020-Aug-02 11:33 100 21.7
2020-Aug-02 11:27 097 21.7
2020-Aug-02 11:21 088 22.8
2020-Aug-02 11:15 103 22.8
2020-Aug-02 11:08 089 22.2
2020-Aug-02 11:02 116 21.7
2020-Aug-02 10:56 104 22.2
2020-Aug-02 10:50 120 21.1
2020-Aug-02 10:43 087 21.7
2020-Aug-02 10:37 121 21.1
2020-Aug-02 10:31 104 21.7
2020-Aug-02 10:25 119 21.7
2020-Aug-02 10:18 108 21.7
2020-Aug-02 10:12 067 21.7
2020-Aug-02 10:06 085 21.7
2020-Aug-02 09:59 131 22.2
2020-Aug-02 09:53 298 22.2
2020-Aug-02 09:47 096 21.1
2020-Aug-02 09:41 097 20.6
2020-Aug-02 09:34 113 20.6
2020-Aug-02 09:28 109 20.6
2020-Aug-02 09:22 103 21.1
2020-Aug-02 09:16 094 20.0
2020-Aug-02 09:09 096 20.6
2020-Aug-02 09:03 080 20.0
2020-Aug-02 08:57 113 20.0
2020-Aug-02 08:50 082 20.6
2020-Aug-02 08:44 101 20.0
2020-Aug-02 08:38 101 19.4
2020-Aug-02 08:32 139 20.0
2020-Aug-02 08:25 114 20.0
2020-Aug-02 08:19 108 20.0
2020-Aug-02 08:13 122 20.0
2020-Aug-02 08:07 107 20.0
2020-Aug-02 08:00 095 20.0
2020-Aug-02 07:54 116 20.6
2020-Aug-02 07:48 068 20.6
2020-Aug-02 07:42 100 19.4
2020-Aug-02 07:35 115 19.4
2020-Aug-02 07:29 092 19.4
2020-Aug-02 07:23 104 19.4
2020-Aug-02 07:17 098 19.4
2020-Aug-02 07:10 108 19.4
2020-Aug-02 07:04 124 20.0
2020-Aug-02 06:58 121 19.4
2020-Aug-02 06:51 105 20.0
2020-Aug-02 06:45 125 19.4
2020-Aug-02 06:39 088 19.4
2020-Aug-02 06:33 109 18.9
2020-Aug-02 06:26 099 19.4
2020-Aug-02 06:20 096 18.9
2020-Aug-02 06:14 114 18.9
2020-Aug-02 06:08 125 18.3
2020-Aug-02 06:01 102 18.9
2020-Aug-02 05:55 110 19.4
2020-Aug-02 05:49 128 20.6
2020-Aug-02 05:43 148 20.0
2020-Aug-02 05:36 103 19.4
2020-Aug-02 05:30 103 18.3
2020-Aug-02 05:24 097 17.8
2020-Aug-02 05:18 118 17.2
2020-Aug-02 05:11 198 18.9
2020-Aug-02 05:05 298 19.4
2020-Aug-02 04:59 310 18.3
2020-Aug-02 04:53 318 17.8
2020-Aug-02 04:46 320 17.8
2020-Aug-02 04:40 320 17.2
2020-Aug-02 04:34 318 17.2
2020-Aug-02 04:27 320 16.7
2020-Aug-02 04:21 319 16.1
2020-Aug-02 04:15 319 17.2
2020-Aug-02 04:09 320 15.0
2020-Aug-02 04:02 320 15.6
2020-Aug-02 03:56 320 14.4
2020-Aug-02 03:50 321 16.1
2020-Aug-02 03:44 320 13.9
2020-Aug-02 03:37 319 14.4
2020-Aug-02 03:31 320 13.3
2020-Aug-02 03:25 320 12.2
2020-Aug-02 03:19 318 10.6
2020-Aug-02 03:12 319 10.6
2020-Aug-02 03:06 319 10.6
2020-Aug-02 03:00 319 10.6
2020-Aug-02 02:54 319 10.6
2020-Aug-02 02:47 320 11.1
2020-Aug-02 02:41 319 11.1
2020-Aug-02 02:35 320 11.7
2020-Aug-02 02:28 319 11.1
2020-Aug-02 02:22 320 11.1
2020-Aug-02 02:16 319 11.1
2020-Aug-02 02:10 319 11.1
2020-Aug-02 02:03 319 11.7